Location: Kellogg
(38.0159°N, 90.0546°W)
Time: 03:25:50
(UTC+00:00)

SR - Pass Details

Date: 11 September 2024
Orbit: 577 x 855 km, 66.7° (Epoch: 10 October)

Event Time Altitude Azimuth Distance (km) Brightness Sun altitude
Rises 05:39:06 0° 327° (NNW) 2,960 ? -47.4°
Enters shadow 05:39:07 - 327° (NNW) 2,953 ? -47.4°
Reaches altitude 10° 05:41:21 10° 323° (NW) 2,085 - -47.5°
Maximum altitude 05:45:58 56° 245° (WSW) 834 - -47.6°
Drops below altitude 10° 05:50:59 10° 168° (SSE) 2,252 - -47.6°
Sets 05:53:29 0° 165° (SSE) 3,219 - -47.6°
